Regional Weather Roundup
Issued by NWS

Home | Current Version | Previous Version | Graphics & Text | Print | Product List | Glossary On
Versions: 1 2 3 4 5 6 7 8 9 10 11 12 13 14 15 16 17 18 19 20 21 22 23 24 25 26 27 28 29 30 31 32 33 34 35 36 37 38 39 40 41 42 43 44 45 46 47 48 49 50
000
ASUS45 KABQ 070401
RWRNM
NEW MEXICO REGIONAL WEATHER ROUNDUP
NATIONAL WEATHER SERVICE ALBUQUERQUE NM
900 PM MST TUE DEC 06 2016

NOTE: "FAIR" MEANS FEW OR NO CLOUDS BELOW 12,000 FEET AGL WITH NO
       SIGNIFICANT WEATHER OR OBSTRUCTIONS TO VISION.

      THIS PRODUCT IS RELEASED AS TWO VERSIONS.  ONE VERSION NEAR
      THE TOP OF THE HOUR CONTAINING PRELIMINARY DATA FROM ALBUQUERQUE
      AND OTHER STATIONS.  A FINAL VERSION WITH ADDITIONAL DATA IS
      ISSUED ABOUT 10 MINUTES AFTER THE HOUR.

NMZ501-503-504-510>518-070500-
NORTHWEST PLATEAU/NORTHCENTRAL MOUNTAINS

CITY           SKY/WX    TMP DP  RH WIND       PRES   REMARKS
FARMINGTON     FAIR      37  17  44 W12       29.75R WCI  29
LOS ALAMOS     CLOUDY    29  11  46 S8        29.82F WCI  22
SANTA FE       FAIR      28  11  48 S5        29.83R WCI  23
TAOS           MOCLDY    30  10  43 W10       29.78F WCI  21
ANGEL FIRE     CLOUDY    28  18  66 S12G21    29.76F WCI  18

$$
NMZ402-403-502-505>509-070500-
WESTCENTRAL MOUNTAINS/SOUTHWEST MOUNTAINS

CITY           SKY/WX    TMP DP  RH WIND       PRES   REMARKS
GALLUP         FAIR      37  24  59 SW20G26   29.87R WCI  27
GRANTS         FAIR      39  21  48 W12G26    29.87R WCI  32
SILVER CITY    FAIR      35  29  79 N5        29.96S WCI  31

$$
NMZ407-409-411-412-070500-
SOUTHERN DESERTS

CITY           SKY/WX    TMP DP  RH WIND       PRES   REMARKS
DEMING         FAIR      47  33  58 SW9       29.93S
LAS CRUCES     FAIR      44  30  57 S8        29.95R
HOLLOMAN AFB   FAIR      48  31  50 S9        29.95S
T OR C         FAIR      47  26  44 S3        29.89R

$$
NMZ519>523-070500-
CENTRAL VALLEYS/CENTRAL HIGHLANDS

CITY           SKY/WX    TMP DP  RH WIND       PRES   REMARKS
ALBUQUERQUE    MOCLDY    37  15  40 CALM      29.85S
DOUBLE EAGLE   CLEAR     28  14  54 SW8       29.85S WCI  20
MORIARTY ARPT  CLOUDY    36  13  37 NW3       29.86R
CLINES CORNERS CLOUDY    38  24  57 SW20      29.85S WCI  28
BELEN          FAIR      44  21  39 SW14      29.86S
SOCORRO        NOT AVBL

$$
NMZ524>526-539-540-070500-
SOUTHCENTRAL MOUNTAINS

CITY           SKY/WX    TMP DP  RH WIND       PRES   REMARKS
RUIDOSO        FAIR      41  25  52 SW16G23   29.92F

$$
NMZ527>531-070500-
NORTHEAST HIGHLANDS/NORTHEAST PLAINS

CITY           SKY/WX    TMP DP  RH WIND       PRES   REMARKS
LAS VEGAS      CLOUDY    24   8  50 S13       29.83F WCI  12
RATON          CLOUDY    24   5  44 S12       29.81F WCI  13
CLAYTON        FAIR      16   5  62 S10       29.88S WCI   4

$$
NMZ532>537-070500-
EASTCENTRAL PLAINS

CITY           SKY/WX    TMP DP  RH WIND       PRES   REMARKS
TUCUMCARI      FAIR      26  12  55 SE5       29.91S WCI  20
CANNON AFB     FAIR      27  21  79 S9        29.93F WCI  18
CLOVIS AIRPORT FAIR      28  16  59 S13       29.93F WCI  18

$$
NMZ028-029-538-070500-
SOUTHEAST PLAINS

CITY           SKY/WX    TMP DP  RH WIND       PRES   REMARKS
ROSWELL        FAIR      31  21  66 SW3       29.93F
ARTESIA        FAIR      36  27  69 S13       29.94F WCI  27
CARLSBAD       FAIR      36  28  73 S10       29.96S WCI  28
HOBBS          FAIR      30  30 100 E6        29.99S WCI  24


$$



USA.gov is the U.S. government's official web portal to all federal, state and local government web resources and services.